Time,TemperatureF,DewpointF,PressureIn,WindDirection,WindDirectionDegrees,WindSpeedMPH,WindSpeedGustMPH,Humidity,HourlyPrecipIn,Conditions,Clouds,dailyrainin,SoftwareType,DateUTC
2013-01-07 17:49:00,42.0,25.6,30.19,North,0,0.0,0.0,52,0.00,,,0.00,Weather View 32 v70,2013-01-07 23:49:00,
2013-01-07 17:54:00,41.8,25.4,30.17,North,0,0.0,0.0,52,0.00,,,0.00,Weather View 32 v70,2013-01-07 23:54:00,
2013-01-07 17:59:00,41.6,25.3,30.16,North,0,0.0,0.0,52,0.00,,,0.00,Weather View 32 v70,2013-01-07 23:59:00,
2013-01-07 18:04:00,41.3,25.4,30.15,North,0,0.0,0.0,53,0.00,,,0.00,Weather View 32 v70,2013-01-08 00:04:00,
2013-01-07 18:14:00,41.0,25.2,30.13,North,0,0.0,0.0,53,0.00,,,0.00,Weather View 32 v70,2013-01-08 00:14:00,
2013-01-07 18:19:00,40.8,25.0,30.13,North,0,0.0,0.0,53,0.00,,,0.00,Weather View 32 v70,2013-01-08 00:19:00,
2013-01-07 18:29:00,40.1,25.2,30.11,North,0,0.0,0.0,55,0.00,,,0.00,Weather View 32 v70,2013-01-08 00:29:00,
2013-01-07 18:39:00,39.6,25.2,30.12,North,0,0.0,0.0,56,0.00,,,0.00,Weather View 32 v70,2013-01-08 00:39:00,
2013-01-07 18:48:00,39.5,25.1,30.11,North,0,0.0,0.0,56,0.00,,,0.00,Weather View 32 v70,2013-01-08 00:48:00,
2013-01-07 18:54:00,39.1,25.1,30.11,North,0,0.0,0.0,57,0.00,,,0.00,Weather View 32 v70,2013-01-08 00:54:00,
2013-01-07 18:59:00,39.0,25.0,30.10,North,0,0.0,0.0,57,0.00,,,0.00,Weather View 32 v70,2013-01-08 00:59:00,
2013-01-07 19:04:00,38.9,24.9,30.10,North,0,0.0,0.0,57,0.00,,,0.00,Weather View 32 v70,2013-01-08 01:04:00,
2013-01-07 19:10:00,38.7,25.2,30.09,North,0,0.0,0.0,58,0.00,,,0.00,Weather View 32 v70,2013-01-08 01:10:00,
2013-01-07 19:20:00,38.4,25.3,30.09,North,0,0.0,0.0,59,0.00,,,0.00,Weather View 32 v70,2013-01-08 01:20:00,
2013-01-07 19:30:00,38.1,25.4,30.09,North,0,0.0,0.0,60,0.00,,,0.00,Weather View 32 v70,2013-01-08 01:30:00,
2013-01-07 19:39:00,38.0,25.7,30.09,North,0,0.0,0.0,61,0.00,,,0.00,Weather View 32 v70,2013-01-08 01:39:00,
2013-01-07 19:44:00,38.0,25.7,30.09,North,0,0.0,0.0,61,0.00,,,0.00,Weather View 32 v70,2013-01-08 01:44:00,
2013-01-07 19:54:00,37.7,25.4,30.10,North,0,0.0,0.0,61,0.00,,,0.00,Weather View 32 v70,2013-01-08 01:54:00,
2013-01-07 19:59:00,37.8,25.5,30.09,North,0,0.0,0.0,61,0.00,,,0.00,Weather View 32 v70,2013-01-08 01:59:00,
2013-01-07 20:04:00,37.6,25.7,30.09,North,0,0.0,0.0,62,0.00,,,0.00,Weather View 32 v70,2013-01-08 02:04:00,
2013-01-07 20:14:00,37.7,25.8,30.09,North,0,0.0,0.0,62,0.00,,,0.00,Weather View 32 v70,2013-01-08 02:14:00,
2013-01-07 20:24:00,37.7,25.8,30.09,North,0,0.0,0.0,62,0.00,,,0.00,Weather View 32 v70,2013-01-08 02:24:00,
2013-01-07 20:34:00,37.6,26.1,30.10,North,0,0.0,0.0,63,0.00,,,0.00,Weather View 32 v70,2013-01-08 02:34:00,
2013-01-07 20:39:00,37.6,26.1,30.10,North,0,0.0,0.0,63,0.00,,,0.00,Weather View 32 v70,2013-01-08 02:39:00,
2013-01-07 20:49:00,37.6,26.1,30.10,North,0,0.0,0.0,63,0.00,,,0.00,Weather View 32 v70,2013-01-08 02:49:00,
2013-01-07 20:54:00,37.9,26.4,30.10,North,0,0.0,0.0,63,0.00,,,0.00,Weather View 32 v70,2013-01-08 02:54:00,
2013-01-07 20:59:00,38.0,26.5,30.10,North,0,0.0,0.0,63,0.00,,,0.00,Weather View 32 v70,2013-01-08 02:59:00,
2013-01-07 21:04:00,38.1,26.6,30.10,North,0,0.0,0.0,63,0.00,,,0.00,Weather View 32 v70,2013-01-08 03:04:00,
2013-01-07 21:14:00,38.3,26.8,30.10,North,0,0.0,0.0,63,0.00,,,0.00,Weather View 32 v70,2013-01-08 03:14:00,
2013-01-07 21:24:00,38.3,26.8,30.10,North,0,0.0,0.0,63,0.00,,,0.00,Weather View 32 v70,2013-01-08 03:24:00,
2013-01-07 21:34:00,38.6,27.1,30.10,North,0,0.0,0.0,63,0.00,,,0.00,Weather View 32 v70,2013-01-08 03:34:00,
2013-01-07 21:39:00,38.7,27.2,30.10,North,0,0.0,0.0,63,0.00,,,0.00,Weather View 32 v70,2013-01-08 03:39:00,
2013-01-07 21:49:00,38.8,27.3,30.10,North,0,0.0,0.0,63,0.00,,,0.00,Weather View 32 v70,2013-01-08 03:49:00,
2013-01-07 21:54:00,39.0,27.5,30.10,North,0,0.0,0.0,63,0.00,,,0.00,Weather View 32 v70,2013-01-08 03:54:00,
2013-01-07 21:59:00,38.9,27.4,30.10,North,0,0.0,0.0,63,0.00,,,0.00,Weather View 32 v70,2013-01-08 03:59:00,
2013-01-07 22:04:00,39.0,27.5,30.10,North,0,0.0,0.0,63,0.00,,,0.00,Weather View 32 v70,2013-01-08 04:04:00,
2013-01-07 22:09:00,38.9,27.7,30.10,North,0,0.0,0.0,64,0.00,,,0.00,Weather View 32 v70,2013-01-08 04:09:00,
2013-01-07 22:19:00,38.9,27.7,30.10,North,0,0.0,0.0,64,0.00,,,0.00,Weather View 32 v70,2013-01-08 04:19:00,
2013-01-07 22:29:00,38.6,27.8,30.11,North,0,0.0,0.0,65,0.00,,,0.00,Weather View 32 v70,2013-01-08 04:29:00,
2013-01-07 22:39:00,38.4,27.7,30.10,North,0,0.0,0.0,65,0.00,,,0.00,Weather View 32 v70,2013-01-08 04:39:00,
2013-01-07 22:50:00,38.3,27.9,30.10,North,0,0.0,0.0,66,0.00,,,0.00,Weather View 32 v70,2013-01-08 04:50:00,
2013-01-07 22:59:00,38.1,27.7,30.09,North,0,0.0,0.0,66,0.00,,,0.00,Weather View 32 v70,2013-01-08 04:59:00,
2013-01-07 23:04:00,38.0,27.6,30.09,North,0,0.0,0.0,66,0.00,,,0.00,Weather View 32 v70,2013-01-08 05:04:00,
2013-01-07 23:09:00,37.8,27.8,30.09,North,0,0.0,0.0,67,0.00,,,0.00,Weather View 32 v70,2013-01-08 05:09:00,
2013-01-07 23:14:00,37.7,27.7,30.09,North,0,0.0,0.0,67,0.00,,,0.00,Weather View 32 v70,2013-01-08 05:14:00,
2013-01-07 23:24:00,37.3,27.3,30.09,North,0,0.0,0.0,67,0.00,,,0.00,Weather View 32 v70,2013-01-08 05:24:00,
2013-01-07 23:29:00,37.3,27.7,30.09,North,0,0.0,0.0,68,0.00,,,0.00,Weather View 32 v70,2013-01-08 05:29:00,
2013-01-07 23:34:00,37.1,27.5,30.09,North,0,0.0,0.0,68,0.00,,,0.00,Weather View 32 v70,2013-01-08 05:34:00,
2013-01-07 23:44:00,36.8,27.2,30.09,North,0,0.0,0.0,68,0.00,,,0.00,Weather View 32 v70,2013-01-08 05:44:00,
2013-01-07 23:50:00,36.4,27.2,30.09,North,0,0.0,0.0,69,0.00,,,0.00,Weather View 32 v70,2013-01-08 05:50:00,
2013-01-07 23:59:00,36.0,27.2,30.10,North,0,0.0,0.0,70,0.00,,,0.00,Weather View 32 v70,2013-01-08 05:59:00,